This is the latest recevied weather packets stored in our database for station/object N3SBK. If no packets are shown the sender has not sent any weather packets the latest 10 day(s).
| Time | Temp. | Humidity | Pressure | Rain* | Wind** | Luminosity | Snow |
|---|---|---|---|---|---|---|---|
| 1777880460 | 8.89° C | 53% | 1004.2 hPa | 0 mm | - | 0 W/m² | - |
| 1777880158 | 8.89° C | 52% | 1004.3 hPa | 0 mm | - | 0 W/m² | - |
| 1777879857 | 8.89° C | 53% | 1004.2 hPa | 0 mm | - | 0 W/m² | - |
| 1777879554 | 8.33° C | 55% | 1004.3 hPa | 0 mm | - | 0 W/m² | - |
| 1777879251 | 8.33° C | 54% | 1004.3 hPa | 0 mm | - | 0 W/m² | - |
| 1777878948 | 8.33° C | 54% | 1004.6 hPa | 0 mm | - | 0 W/m² | - |
| 1777878645 | 8.33° C | 56% | 1004.4 hPa | 0 mm | - | 0 W/m² | - |
| 1777878343 | 7.78° C | 56% | 1004.3 hPa | 0 mm | - | 0 W/m² | - |
| 1777878038 | 7.78° C | 59% | 1004.5 hPa | 0 mm | - | 0 W/m² | - |
| 1777877734 | 7.78° C | 58% | 1004.4 hPa | 0 mm | - | 0 W/m² | - |
| 1777877432 | 7.78° C | 56% | 1004.5 hPa | 0 mm | - | 0 W/m² | - |
| 1777877129 | 7.78° C | 60% | 1004.6 hPa | 0 mm | - | 0 W/m² | - |
| 1777876826 | 7.22° C | 57% | 1004.5 hPa | 0 mm | - | 0 W/m² | - |
| 1777876523 | 7.22° C | 58% | 1004.5 hPa | 0 mm | - | 0 W/m² | - |
| 1777876221 | 6.67° C | 57% | 1004.6 hPa | 0 mm | - | 0 W/m² | - |
| 1777875916 | 6.67° C | 60% | 1004.6 hPa | 0 mm | - | 0 W/m² | - |
| 1777875613 | 6.67° C | 59% | 1004.6 hPa | 0 mm | - | 0 W/m² | - |
| 1777875309 | 6.67° C | 60% | 1004.8 hPa | 0 mm | - | 0 W/m² | - |
| 1777875006 | 6.67° C | 58% | 1004.8 hPa | 0 mm | - | 0 W/m² | - |
| 1777874702 | 6.11° C | 59% | 1004.8 hPa | 0 mm | - | 0 W/m² | - |
| 1777874398 | 6.11° C | 59% | 1005 hPa | 0 mm | - | 0 W/m² | - |
| 1777874097 | 6.11° C | 61% | 1005.1 hPa | 0 mm | - | 0 W/m² | - |
| 1777873794 | 6.11° C | 60% | 1004.6 hPa | 0 mm | - | 0 W/m² | - |
| 1777873490 | 6.11° C | 59% | 1004.8 hPa | 0 mm | - | 0 W/m² | - |
| 1777873188 | 6.11° C | 59% | 1004.8 hPa | 0 mm | - | 0 W/m² | - |
* Rain latest hour (hover to see other rain measurements)
** Current wind speed in m/s (hover to see current wind gust speed)